Flag for U.S.A. Weather past 2 weeks in West Covina, California, U.S.A.

Now
81 °F

Sunny.


Feels Like: 81 °F
Forecast: 67 / 86 °F
Wind: 6 mph from Southwest

Location: Fullerton Municipal Airport

Current Time: Jul 1, 2015 at 6:32:02 PM

Latest Report: Jul 1, 2015 at 5:53 PM


Visibility: 10 mi

Pressure: 29.86 "Hg

Humidity: 45%

Dew point: 58 °F

Location of West CovinaLocation

Historic Weather in West Covina — Graph

°F

West Covina temperature yesterday

Maximum temperature yesterday: 89 °F (at 11:53 AM)
Minimum temperature yesterday: 68 °F (at 4:53 AM)
Average temperature yesterday: 78 °F

Past Weeks' High & Low Weather Summary

 TemperatureHumidityPressure
High94 °F (Jun 28, 2:53 PM)97% (Jun 19, 6:53 AM)30.01 "Hg (Jun 19, 6:53 AM)
Low60 °F (Jun 19, 5:53 AM)30% (Jun 30, 7:53 PM)29.77 "Hg (Jun 30, 7:53 PM)
Average74 °F64%29.89 "Hg
* Reported Jun 16 4:53 PM — Jul 1 4:53 PM, West Covina, Weather by CustomWeather, © 2015

Note: Actual official high and low records may vary slightly from our data, if they occured in-between our weather recording intervals... More about our weather records

Advertising

West Covina weather history for previous 24 hours

 ConditionsComfort  
Time TempWeatherWind HumidityBarometerVisibility
4:53 PM
Wed, Jul 1
81 °FSunny.7 mph47%29.86 "Hg10 mi
3:53 PM84 °FSunny.7 mph48%29.87 "Hg10 mi
2:53 PM82 °FSunny.7 mph53%29.89 "Hg10 mi
1:53 PM81 °FSunny.8 mph54%29.88 "Hg10 mi
12:53 PM87 °FSunny.8 mph43%29.87 "Hg10 mi
11:55 AM86 °FSunny.3 mph43%29.90 "Hg10 mi
11:53 AM86 °FSunny.No wind43%29.89 "Hg10 mi
10:53 AM84 °FSunny.No wind46%29.90 "Hg10 mi
9:53 AM79 °FSunny.No wind58%29.91 "Hg10 mi
8:53 AM77 °FSunny.5 mph62%29.91 "Hg10 mi
7:53 AM74 °FSunny.No wind69%29.89 "Hg10 mi
6:53 AM72 °FSunny.No wind73%29.87 "Hg10 mi
5:53 AM71 °FClear.3 mph76%29.88 "Hg10 mi
4:53 AM72 °FClear.3 mph73%29.87 "Hg10 mi
3:53 AM73 °FClear.No wind69%29.88 "Hg10 mi
2:53 AM72 °FClear.No wind71%29.85 "Hg10 mi
1:53 AM72 °FClear.No wind71%29.84 "Hg10 mi
12:53 AM73 °FClear.3 mph69%29.84 "Hg10 mi
11:53 PM
Tue, Jun 30
74 °FClear.3 mph64%29.84 "Hg10 mi
10:53 PM75 °FClear.No wind64%29.84 "Hg10 mi
8:53 PM82 °FSunny.5 mph43%29.79 "Hg10 mi
7:53 PM87 °FSunny.No wind30%29.77 "Hg10 mi
6:53 PM86 °FSunny.No wind36%29.78 "Hg10 mi
Weather by CustomWeather, © 2015

See weather overviewHow to use our weather pages